Location: Unspecified
(0.0000°N, 0.0000°E)
Time: 00:07:31
(UTC+00:00)

LightSail 2 - Pass Details

Date: 23 February 2020
Orbit: 698 x 724 km, 24.0° (Epoch: 26 February)

Event Time Altitude Azimuth Distance (km) Brightness Sun altitude
Rises 18:52:03 0° 220° (SW) 3,071 9.3 -9.5°
Reaches altitude 10° 18:55:13 10° 200° (SSW) 2,150 8.1 -10.3°
Maximum altitude 18:58:35 18° 158° (SSE) 1,687 7.0 -11.1°
Enters shadow 19:01:57 10° 116° (ESE) 2,143 7.1 -12.0°
